Theta_e
299 300 300 300 300 300 298 292 282 298 300 285 285 279 281 286 282 284 282 283 282 280 281 281 283 285 291 295 293 293 297 293 287 290 296 300 297 294 293 286 284 288 285 286
299 299 299 299 300 300 294 285 287 296 296 279 280 284 283 284 282 281 281 280 283 284 280 277 282 283 289 291 291 289 296 290 284 287 292 297 293 294 295 294 288 286 283 286
300 299 299 298 299 300 295 286 280 285 290 288 281 280 282 281 286 284 283 282 283 281 279 283 280 282 288 293 293 295 292 288 287 283 288 292 289 292 295 293 287 287 287 290
299 298 298 298 299 299 294 285 283 284 279 281 284 282 281 280 280 284 284 281 280 280 277 278 279 282 284 287 290 291 287 283 286 289 292 292 293 292 292 291 292 288 290 290
297 298 298 299 298 299 290 283 283 287 284 283 281 284 282 281 281 282 281 280 281 280 278 279 277 281 281 281 286 287 288 280 283 280 285 291 291 294 294 293 293 293 293 292
298 297 298 298 298 297 289 290 291 287 283 283 281 280 281 281 284 284 285 283 281 280 280 283 285 284 284 284 283 283 282 281 279 276 282 280 278 288 292 294 295 294 289 294
297 297 297 297 297 297 292 291 290 283 278 281 281 283 284 283 283 282 285 286 283 285 288 286 284 284 283 283 282 285 279 279 279 275 277 271 283 289 288 292 296 297 297 297
296 297 297 297 297 298 294 293 289 284 279 282 282 283 283 284 285 285 285 287 289 289 286 280 277 274 273 277 281 281 283 279 274 273 272 277 280 283 287 289 290 299 297 299
297 297 297 297 297 298 295 293 294 288 281 280 284 282 284 281 282 283 285 290 292 289 282 278 272 270 270 268 273 282 282 282 277 271 270 269 279 286 292 289 279 291 300 300
297 297 297 297 297 297 295 294 296 290 283 286 286 283 283 288 286 283 284 286 285 286 280 276 274 273 277 270 269 271 273 273 274 274 272 276 283 286 289 278 283 298 299 301
296 296 296 296 297 297 295 292 296 291 285 287 290 291 287 286 286 282 283 283 283 281 277 277 275 272 275 274 278 277 275 272 273 275 272 270 289 291 287 291 294 295 296 301
296 295 295 296 296 297 299 290 296 297 288 286 292 293 294 293 291 286 285 282 282 281 279 279 274 272 268 276 272 280 275 278 275 277 278 287 293 294 296 297 296 296 296 297
295 295 294 296 296 297 298 294 294 292 285 284 288 286 292 294 292 294 284 282 287 283 284 279 278 274 276 272 273 277 280 284 280 280 283 286 289 292 295 299 297 298 298 298
294 294 294 295 296 298 298 294 294 291 287 280 280 293 289 293 293 292 290 288 289 288 287 283 279 273 280 274 278 277 280 282 281 281 285 287 289 292 293 295 296 297 298 299
293 294 294 295 296 298 295 292 291 290 286 278 278 288 289 290 291 290 289 289 287 285 284 282 278 279 281 281 281 278 282 281 279 279 285 286 287 292 293 294 295 296 298 298
292 294 295 295 296 296 291 280 285 288 286 279 274 283 286 287 287 287 287 286 285 283 281 280 279 284 282 276 275 283 285 287 288 285 289 290 290 292 294 294 295 299 298 299
292 294 294 295 298 294 286 283 288 294 290 279 276 276 284 287 287 286 285 286 284 285 283 281 278 280 282 276 276 281 284 286 288 289 289 288 291 291 294 294 297 298 297 297
293 294 295 297 297 295 289 292 295 295 289 287 278 277 281 286 281 281 286 283 284 283 278 280 278 279 282 277 281 283 285 286 286 287 290 292 294 290 289 291 290 290 289 289
294 294 295 289 290 285 285 295 295 294 288 281 281 273 269 285 282 281 284 285 279 279 279 279 280 277 276 280 281 283 285 285 286 287 288 291 290 287 287 288 288 287 287 288
292 287 281 275 285 294 293 287 284 285 285 285 281 283 279 283 281 279 277 281 276 274 277 279 279 277 283 284 285 285 286 286 287 285 283 286 286 288 288 289 289 288 287 287
282 282 283 286 292 287 280 278 280 280 279 282 282 281 278 283 280 279 282 276 277 274 275 276 277 275 280 284 284 285 286 287 288 291 291 290 289 289 289 289 289 289 288 286
284 286 289 289 286 281 278 276 279 278 277 279 277 278 280 281 283 280 282 278 279 273 280 276 271 277 282 283 284 285 286 287 288 292 291 291 291 290 289 289 288 287 286 286
290 287 283 282 275 270 274 272 277 273 279 279 279 275 276 280 282 280 279 276 274 279 273 272 276 280 284 283 285 285 288 290 292 293 294 291 290 289 286 284 285 285 285 284
284 281 271 274 267 273 276 277 276 279 279 279 277 275 275 278 279 279 274 277 277 271 269 272 278 281 283 283 285 284 283 286 286 289 290 288 287 285 285 285 284 283 283 283
281 280 270 272 275 276 276 275 277 281 282 278 276 277 279 278 275 278 276 271 269 273 273 277 282 282 282 282 283 283 283 283 283 284 283 283 284 283 283 283 283 282 282 281
280 281 275 273 274 274 277 280 278 280 281 283 280 278 277 275 277 276 274 274 273 275 279 281 282 282 282 282 282 282 283 282 282 282 283 282 282 280 280 281 281 281 281 280
280 274 274 272 279 280 279 280 279 280 279 274 277 273 275 276 275 276 279 275 277 280 281 282 283 282 282 282 282 282 281 281 281 280 280 280 281 281 280 278 278 279 279 279
Wind_Speed
18 19 20 21 20 21 11 4 4 3 11 9 6 20 5 3 3 5 11 2 6 14 13 8 9 6 8 11 5 23 25 13 19 17 5 20 27 27 24 11 21 16 10 27
18 19 19 21 20 19 6 3 4 4 8 8 16 8 24 9 4 5 6 9 8 6 10 7 12 15 16 20 9 8 14 8 12 18 17 8 31 32 25 22 5 24 11 26
19 19 19 20 20 19 7 3 4 3 8 8 9 15 18 19 11 18 10 3 14 12 16 9 6 14 8 2 7 6 9 5 15 20 26 16 12 22 26 25 16 24 24 39
19 18 20 21 19 18 6 3 5 4 6 14 11 8 6 25 22 16 14 14 23 16 16 8 17 13 15 16 13 8 3 7 9 29 32 27 26 26 25 33 34 25 36 32
19 19 19 20 19 18 4 5 4 1 5 6 6 22 18 25 16 13 19 25 26 19 23 19 19 19 15 17 2 3 4 8 13 18 19 25 26 29 26 26 30 31 33 31
17 20 19 19 19 15 4 3 8 7 5 8 11 14 19 28 21 25 27 30 19 15 34 30 22 3 6 17 4 4 6 4 7 23 12 18 12 24 26 27 29 29 32 43
19 19 19 20 21 18 7 6 5 7 13 11 15 19 19 25 27 33 34 27 22 42 4 6 5 12 15 17 15 8 7 5 3 13 6 16 6 11 15 19 26 31 35 36
20 20 20 21 22 23 10 7 7 7 10 11 15 20 24 28 29 34 34 32 33 5 18 7 5 2 5 12 15 15 15 10 6 12 14 17 25 19 14 14 29 31 32 37
21 21 21 22 23 24 13 10 9 7 8 14 17 19 21 21 20 23 29 28 20 11 6 5 9 8 6 7 7 20 19 15 11 4 11 12 23 8 8 17 21 23 26 34
21 22 22 22 25 25 14 9 12 8 6 8 8 12 13 14 16 11 4 17 10 17 9 9 7 7 8 5 6 6 5 5 16 15 12 9 28 21 19 13 22 18 27 31
23 20 22 23 26 27 18 8 12 11 6 10 10 11 8 6 6 6 2 7 4 8 9 7 5 5 8 7 5 8 11 8 9 10 13 21 8 9 14 7 13 10 18 29
22 22 24 25 27 27 23 12 6 9 7 4 3 10 10 10 10 3 6 3 5 6 5 4 4 3 1 8 9 5 8 9 6 9 8 12 5 5 5 5 16 13 12 20
23 24 25 26 27 29 20 4 2 2 2 4 3 4 6 6 2 3 3 1 3 2 2 5 3 4 6 6 7 4 6 8 11 13 22 28 28 21 14 13 14 11 14 15
24 25 25 26 27 26 23 4 3 2 0 3 5 3 4 7 4 2 3 4 4 4 3 1 3 3 4 6 6 10 7 8 16 16 21 17 24 15 13 18 18 14 14 16
24 25 26 26 27 19 5 1 2 2 3 3 4 3 1 4 3 5 3 7 5 2 3 3 4 3 2 2 2 7 8 13 10 14 13 10 17 14 17 13 15 16 13 11
24 26 26 26 25 13 2 3 2 2 3 1 4 3 1 2 4 4 3 2 2 2 3 3 3 3 4 4 9 14 13 11 14 21 16 17 17 15 18 15 18 17 11 7
24 25 26 26 13 2 2 3 3 3 3 2 4 4 1 2 2 1 1 1 0 0 1 3 3 2 4 4 21 7 9 14 21 22 18 18 19 16 11 13 16 8 5 12
24 25 25 19 4 4 3 1 2 2 1 2 2 4 2 4 2 2 2 2 3 4 3 1 3 2 4 11 12 9 21 23 22 22 17 18 15 7 7 6 6 10 10 10
25 25 16 3 1 1 3 3 1 0 1 2 2 2 4 2 1 1 2 3 3 3 4 4 4 4 10 11 11 13 16 17 19 16 18 16 14 7 4 5 8 11 9 11
19 4 3 4 2 8 2 2 1 2 3 2 2 1 2 3 2 2 0 2 3 2 5 2 5 8 19 17 16 9 8 9 12 13 9 10 9 8 5 6 4 8 11 15
4 4 2 3 7 1 0 2 2 1 2 2 2 3 2 3 3 3 3 2 2 3 4 3 3 5 3 7 10 10 11 13 15 17 14 13 12 14 11 9 7 9 13 16
5 5 6 3 2 2 2 2 1 3 2 2 2 3 3 2 2 3 2 2 2 4 1 3 4 4 9 12 14 15 14 14 15 15 13 12 11 7 10 11 11 9 15 16
2 3 3 2 3 0 3 2 2 2 2 2 1 2 2 1 2 3 2 4 4 1 1 4 4 6 11 15 15 16 13 9 7 12 13 14 14 14 12 12 11 13 15 14
3 3 5 4 3 4 2 2 3 4 2 2 2 2 3 2 2 2 2 3 1 3 3 4 4 9 11 10 10 10 13 9 9 6 12 14 15 15 13 11 13 16 15 15
3 2 4 5 3 2 3 2 2 2 1 1 0 2 1 2 2 2 2 4 3 3 3 3 5 7 7 9 10 10 10 11 11 9 11 12 13 15 16 11 13 14 14 15
3 4 2 2 2 4 1 1 2 1 1 1 1 1 2 3 2 2 3 3 1 3 3 4 4 5 6 7 8 8 8 9 10 10 12 13 12 13 13 12 10 12 14 16
3 4 1 3 2 2 3 1 2 2 1 2 1 0 4 1 2 2 1 4 4 7 4 3 4 3 5 5 6 8 8 9 10 11 12 12 10 12 12 14 10 13 14 15
Wind_Direction
306 310 313 312 314 317 305 248 238 181 163 193 203 223 247 335 85 184 241 292 236 238 236 262 227 299 286 351 349 223 213 233 234 214 200 202 203 197 184 180 206 231 277 268
301 306 310 311 312 316 308 258 231 198 187 218 220 234 250 277 271 184 206 227 212 239 263 282 255 259 259 263 238 284 225 223 235 218 256 234 209 210 203 213 126 212 186 262
305 304 308 307 309 315 315 260 273 222 206 233 241 229 233 242 213 236 223 249 227 241 240 208 255 245 273 54 273 328 348 271 240 232 227 202 208 216 216 216 216 227 218 251
304 305 305 303 307 312 313 219 246 219 203 230 234 216 225 233 234 217 195 238 235 226 245 231 239 247 261 269 249 228 19 284 323 257 251 239 216 212 214 212 222 217 233 239
298 300 299 302 307 308 259 269 260 259 272 288 219 225 232 250 251 225 220 234 234 216 242 220 241 226 234 239 52 107 117 282 310 303 320 261 237 219 209 214 228 230 245 250
299 297 298 304 306 305 258 234 240 239 237 236 231 236 238 249 241 240 239 228 232 221 230 222 243 221 252 248 216 158 151 235 269 270 285 326 289 247 219 223 220 229 237 239
298 295 298 298 298 292 269 259 263 258 265 249 250 249 254 251 243 245 239 230 220 228 36 137 227 234 248 256 251 181 182 197 231 277 296 252 251 309 308 271 227 223 232 242
292 294 296 294 295 294 278 266 246 262 265 255 261 250 253 258 256 250 246 231 221 130 209 228 233 293 344 252 239 226 204 196 227 249 252 295 291 268 260 244 248 228 231 246
295 294 293 293 295 295 291 262 241 237 257 244 245 258 257 258 257 256 242 227 228 177 161 168 194 203 178 257 280 211 213 203 206 220 257 252 268 288 289 316 293 290 240 247
294 296 296 296 296 296 292 261 250 244 255 241 225 251 263 248 247 256 232 200 177 163 179 193 184 208 187 207 198 155 165 202 215 230 240 253 259 260 273 256 258 278 244 244
302 304 304 301 300 299 299 263 249 224 256 267 252 255 259 277 224 227 121 127 153 166 195 189 165 186 207 191 208 188 191 165 197 228 225 245 187 201 212 198 293 333 317 262
307 309 309 305 304 302 300 279 195 201 233 261 244 255 267 261 274 163 189 156 140 151 152 174 151 192 142 170 235 164 216 192 197 180 203 243 176 191 258 239 263 290 299 295
309 308 308 306 307 307 297 240 206 158 231 277 248 252 296 307 349 211 131 332 127 171 159 155 185 195 144 196 227 231 220 196 229 247 246 249 256 272 262 247 245 258 270 292
306 309 309 307 310 309 303 177 162 159 264 268 270 245 300 301 286 89 97 128 65 83 78 111 172 170 173 208 219 211 192 169 233 249 253 263 263 242 260 268 267 268 277 291
308 309 310 311 312 310 313 144 180 154 171 254 271 260 143 337 326 94 93 128 124 141 173 198 209 186 136 250 264 239 181 218 209 237 230 217 268 263 260 272 279 260 249 282
308 309 314 314 312 319 279 0 326 182 173 119 300 278 246 72 48 69 71 80 105 133 158 212 243 228 172 216 246 240 223 242 236 246 250 249 256 260 261 271 270 253 236 254
310 312 315 313 302 241 211 192 212 198 153 103 302 306 291 152 143 118 108 106 117 297 259 218 197 227 212 243 250 234 217 231 242 249 263 263 258 257 237 236 245 205 253 258
309 313 316 312 206 221 254 254 261 185 181 239 243 264 267 182 174 192 168 188 177 196 224 229 201 204 212 252 245 225 236 248 256 258 258 262 274 255 252 173 163 168 169 171
313 314 305 342 0 281 255 270 158 55 257 238 232 187 260 176 239 171 191 208 224 183 216 230 173 191 226 257 251 241 240 236 247 249 249 250 234 201 207 147 152 151 149 135
323 356 46 341 249 275 335 322 271 226 204 229 255 231 261 182 182 225 82 193 231 243 232 168 229 246 247 255 259 257 249 251 245 235 230 202 200 172 167 160 159 145 131 115
16 7 325 280 309 220 46 279 244 207 246 209 236 214 220 197 230 219 206 211 245 239 251 221 255 259 284 346 306 288 269 258 253 232 224 208 186 173 148 123 134 143 127 116
253 299 286 269 254 214 247 227 250 226 267 221 196 243 209 258 191 231 206 243 229 249 134 259 271 265 314 317 307 295 273 254 236 220 197 181 158 146 131 141 134 123 117 112
263 208 236 249 281 284 211 265 97 324 227 205 175 297 202 330 216 283 213 236 236 109 228 245 248 306 323 322 320 313 278 241 213 208 191 159 137 133 136 125 120 120 109 105
245 230 266 202 265 245 210 189 212 249 230 236 171 251 180 201 209 217 237 250 20 304 260 259 311 321 324 326 336 358 4 62 80 101 131 143 134 130 123 127 123 117 114 126
249 236 238 228 249 260 254 246 293 255 260 162 43 284 158 254 284 221 356 349 263 232 285 303 319 324 324 350 353 6 30 43 55 70 94 102 109 112 106 112 114 112 106 104
225 235 267 279 23 313 340 338 276 302 263 128 22 288 241 255 223 220 225 257 296 341 313 305 318 334 339 7 5 13 29 48 63 68 77 83 86 85 90 92 96 101 112 103
224 253 183 158 245 267 265 272 260 325 107 210 123 173 230 331 290 244 16 19 336 328 327 325 338 317 340 34 29 12 33 50 60 64 72 81 97 98 85 81 74 82 82 90